CCA8185 ZBAA-ZSNJ

Flight info

Callsign CCA8185
Flight time N/A
Altitude 37100
Route ELKUR5Y ELKUR W40 YQG/K0833S1100 W142 DALIM/K0824S1130 A593 DPX A470 OF OF71F
Aircraft A320/M-SDE3FGHIRWY/LB1

Departure

Time N/A
Airport Beijing Capital International Airport (ZBAA)

Arrival

Time 2026-05-07 11:11
Airport Nanjing Lukou International Airport (ZSNJ)
Time Latitude Longitude Altitude Speed Heading
2026-05-07 10:40 33.81044 118.16831 37139 ft 458 kts 172°
2026-05-07 10:41 33.74913 118.19057 37136 ft 460 kts 172°
2026-05-07 10:41 33.71853 118.20171 36881 ft 461 kts 172°
2026-05-07 10:41 33.68783 118.21291 36605 ft 457 kts 172°
2026-05-07 10:42 33.65774 118.22390 36330 ft 453 kts 172°
2026-05-07 10:42 33.62765 118.23483 36053 ft 451 kts 172°
2026-05-07 10:42 33.59771 118.24571 35775 ft 448 kts 172°
2026-05-07 10:42 33.56776 118.25658 35498 ft 448 kts 172°
2026-05-07 10:43 33.53815 118.26730 35226 ft 447 kts 172°
2026-05-07 10:43 33.50841 118.27805 34954 ft 448 kts 172°
2026-05-07 10:43 33.47869 118.28881 34686 ft 449 kts 172°
2026-05-07 10:43 33.44879 118.29964 34416 ft 449 kts 172°
2026-05-07 10:44 33.41863 118.31052 34142 ft 449 kts 172°
2026-05-07 10:44 33.38902 118.32124 33873 ft 449 kts 172°
2026-05-07 10:44 33.35892 118.33211 33603 ft 450 kts 172°
2026-05-07 10:44 33.32922 118.34281 33338 ft 450 kts 171°
2026-05-07 10:45 33.29910 118.35369 33069 ft 451 kts 171°
2026-05-07 10:45 33.26904 118.36455 32771 ft 451 kts 171°
2026-05-07 10:45 33.23900 118.37538 32355 ft 452 kts 171°
2026-05-07 10:45 33.20903 118.38615 31882 ft 451 kts 171°
2026-05-07 10:46 33.17902 118.39694 31330 ft 452 kts 171°
2026-05-07 10:46 33.14874 118.40781 30681 ft 452 kts 171°
2026-05-07 10:46 33.11882 118.41856 30016 ft 453 kts 171°
2026-05-07 10:46 33.08852 118.42947 29366 ft 453 kts 171°
2026-05-07 10:47 33.06867 118.43662 29008 ft 450 kts 171°
2026-05-07 10:47 33.02914 118.45085 28468 ft 446 kts 171°
2026-05-07 10:47 33.01434 118.45618 28246 ft 445 kts 171°
2026-05-07 10:47 32.98627 118.46626 27777 ft 442 kts 171°
2026-05-07 10:48 32.95687 118.47681 27295 ft 439 kts 171°
2026-05-07 10:48 32.92781 118.48723 26791 ft 437 kts 171°
2026-05-07 10:48 32.89891 118.49757 26311 ft 434 kts 171°
2026-05-07 10:48 32.86984 118.50799 25832 ft 431 kts 171°
2026-05-07 10:49 32.84125 118.51825 25352 ft 429 kts 171°
2026-05-07 10:49 32.81267 118.52846 24857 ft 426 kts 170°
2026-05-07 10:49 32.78450 118.53852 24365 ft 424 kts 170°
2026-05-07 10:49 32.75642 118.54858 23916 ft 421 kts 170°
2026-05-07 10:50 32.72829 118.55861 23432 ft 420 kts 170°
2026-05-07 10:50 32.70033 118.56839 22949 ft 416 kts 173°
2026-05-07 10:50 32.67234 118.57333 22497 ft 401 kts 186°
2026-05-07 10:50 32.64516 118.57137 22028 ft 389 kts 197°
2026-05-07 10:51 32.61886 118.56490 21545 ft 385 kts 200°
2026-05-07 10:51 32.59262 118.55776 21061 ft 384 kts 200°
2026-05-07 10:51 32.56667 118.55074 20572 ft 383 kts 199°
2026-05-07 10:51 32.54075 118.54389 20091 ft 382 kts 199°
2026-05-07 10:52 32.51680 118.53837 19648 ft 385 kts 193°
2026-05-07 10:52 32.48994 118.53701 19173 ft 390 kts 183°
2026-05-07 10:52 32.46280 118.54092 18690 ft 393 kts 175°
2026-05-07 10:52 32.43605 118.54683 18224 ft 392 kts 174°
2026-05-07 10:53 32.41813 118.55100 17895 ft 392 kts 174°
2026-05-07 10:53 32.38269 118.55924 17241 ft 390 kts 173°
2026-05-07 10:53 32.35623 118.56532 16769 ft 387 kts 173°
2026-05-07 10:53 32.32994 118.57129 16305 ft 385 kts 173°
2026-05-07 10:54 32.30360 118.57724 15828 ft 383 kts 173°
2026-05-07 10:54 32.27734 118.58313 15359 ft 381 kts 173°
2026-05-07 10:54 32.25150 118.58894 14888 ft 379 kts 172°
2026-05-07 10:54 32.22557 118.59476 14413 ft 377 kts 172°
2026-05-07 10:55 32.19981 118.60053 13936 ft 375 kts 172°
2026-05-07 10:55 32.17426 118.60624 13464 ft 373 kts 171°
2026-05-07 10:55 32.14890 118.61193 13000 ft 370 kts 171°
2026-05-07 10:55 32.12376 118.61755 12548 ft 367 kts 171°
2026-05-07 10:56 32.09873 118.62306 12089 ft 365 kts 171°
2026-05-07 10:56 32.07382 118.62850 11630 ft 362 kts 171°
2026-05-07 10:56 32.04933 118.63385 11179 ft 360 kts 171°
2026-05-07 10:56 32.02454 118.63927 10731 ft 357 kts 171°
2026-05-07 10:57 32.00034 118.64458 10371 ft 351 kts 171°
2026-05-07 10:57 31.97661 118.64981 10226 ft 338 kts 171°
2026-05-07 10:57 31.95389 118.65484 10094 ft 326 kts 172°
2026-05-07 10:57 31.93234 118.65962 9917 ft 309 kts 172°
2026-05-07 10:58 31.91134 118.66423 9537 ft 300 kts 171°
2026-05-07 10:58 31.89086 118.66872 9174 ft 298 kts 171°
2026-05-07 10:58 31.87062 118.67315 8824 ft 296 kts 171°
2026-05-07 10:58 31.85031 118.67760 8472 ft 295 kts 171°
2026-05-07 10:59 31.83038 118.68198 8189 ft 291 kts 171°
2026-05-07 10:59 31.81084 118.68630 8061 ft 280 kts 170°
2026-05-07 10:59 31.79213 118.69045 7986 ft 268 kts 170°
2026-05-07 10:59 31.77488 118.69397 7891 ft 257 kts 178°
2026-05-07 11:00 31.75789 118.69027 7731 ft 245 kts 215°
2026-05-07 11:00 31.74644 118.67612 7442 ft 237 kts 244°
2026-05-07 11:00 31.73859 118.65916 7166 ft 237 kts 245°
2026-05-07 11:00 31.73052 118.64242 6888 ft 236 kts 243°
2026-05-07 11:01 31.72215 118.62592 6613 ft 236 kts 242°
2026-05-07 11:01 31.71354 118.60950 6373 ft 234 kts 242°
2026-05-07 11:01 31.70506 118.59362 6173 ft 229 kts 242°
2026-05-07 11:01 31.69660 118.57781 5918 ft 227 kts 242°
2026-05-07 11:02 31.68816 118.56226 5626 ft 228 kts 237°
2026-05-07 11:02 31.67593 118.55021 5275 ft 234 kts 198°
2026-05-07 11:02 31.66025 118.54920 5095 ft 222 kts 163°
2026-05-07 11:02 31.64683 118.55691 4843 ft 211 kts 143°
2026-05-07 11:03 31.63473 118.56636 4600 ft 206 kts 141°
2026-05-07 11:03 31.62283 118.57576 4377 ft 205 kts 141°
2026-05-07 11:03 31.61116 118.58513 4158 ft 202 kts 134°
2026-05-07 11:03 31.60391 118.59830 3912 ft 186 kts 97°
2026-05-07 11:04 31.60417 118.61278 3706 ft 173 kts 68°
2026-05-07 11:04 31.60842 118.62559 3471 ft 165 kts 63°
2026-05-07 11:04 31.61269 118.63781 3223 ft 159 kts 63°
2026-05-07 11:04 31.61668 118.64948 3033 ft 150 kts 63°
2026-05-07 11:05 31.62048 118.66074 2887 ft 146 kts 64°
2026-05-07 11:05 31.62366 118.67199 2752 ft 145 kts 65°
2026-05-07 11:05 31.62729 118.68287 2593 ft 143 kts 60°
2026-05-07 11:05 31.63174 118.69342 2463 ft 143 kts 57°
2026-05-07 11:06 31.63664 118.70348 2416 ft 140 kts 55°
2026-05-07 11:06 31.64142 118.71284 2416 ft 128 kts 54°
2026-05-07 11:06 31.64603 118.72165 2429 ft 126 kts 54°
2026-05-07 11:06 31.65065 118.73036 2312 ft 125 kts 54°
2026-05-07 11:07 31.65527 118.73904 2147 ft 125 kts 54°
2026-05-07 11:07 31.65990 118.74770 1985 ft 124 kts 54°
2026-05-07 11:07 31.66443 118.75621 1824 ft 123 kts 53°
2026-05-07 11:07 31.66901 118.76478 1658 ft 123 kts 54°
2026-05-07 11:08 31.67357 118.77330 1499 ft 124 kts 54°
2026-05-07 11:08 31.67818 118.78194 1342 ft 125 kts 54°
2026-05-07 11:08 31.68284 118.79068 1176 ft 126 kts 54°
2026-05-07 11:08 31.68758 118.79954 1008 ft 128 kts 54°
2026-05-07 11:09 31.69227 118.80833 838 ft 129 kts 55°
2026-05-07 11:09 31.69713 118.81744 667 ft 131 kts 55°
2026-05-07 11:09 31.70197 118.82649 500 ft 132 kts 55°
2026-05-07 11:09 31.70684 118.83573 342 ft 134 kts 55°
2026-05-07 11:10 31.71186 118.84495 148 ft 135 kts 56°
2026-05-07 11:10 31.71681 118.85416 58 ft 126 kts 55°
2026-05-07 11:10 31.72064 118.86144 57 ft 79 kts 57°
2026-05-07 11:10 31.72282 118.86555 57 ft 50 kts 58°
2026-05-07 11:11 31.72430 118.86828 57 ft 29 kts 56°
2026-05-07 11:11 31.72562 118.86997 57 ft 27 kts 34°
2026-05-07 11:11 31.72605 118.87028 57 ft 0 kts 31°
2026-05-07 11:11 31.72606 118.87028 57 ft 1 kts 31°
2026-05-07 11:12 31.72622 118.87041 57 ft 4 kts 32°
2026-05-07 11:12 31.72659 118.87067 57 ft 8 kts 32°
2026-05-07 11:12 31.72738 118.87120 57 ft 16 kts 29°
2026-05-07 11:12 31.72831 118.87206 57 ft 17 kts 51°
2026-05-07 11:13 31.72898 118.87328 57 ft 18 kts 58°
2026-05-07 11:13 31.72952 118.87430 57 ft 10 kts 54°
2026-05-07 11:13 31.73009 118.87441 57 ft 9 kts 336°
2026-05-07 11:13 31.73067 118.87466 57 ft 10 kts 55°
2026-05-07 11:14 31.73111 118.87545 57 ft 12 kts 59°
2026-05-07 11:14 31.73163 118.87642 57 ft 15 kts 58°
2026-05-07 11:14 31.73220 118.87746 57 ft 12 kts 46°
2026-05-07 11:14 31.73283 118.87745 57 ft 10 kts 351°
2026-05-07 11:15 31.73338 118.87788 57 ft 8 kts 50°
2026-05-07 11:15 31.73403 118.87777 57 ft 12 kts 329°
2026-05-07 11:15 31.73467 118.87730 57 ft 11 kts 328°
2026-05-07 11:15 31.73540 118.87676 57 ft 13 kts 328°
2026-05-07 11:16 31.73594 118.87613 57 ft 10 kts 266°
2026-05-07 11:16 31.73555 118.87530 57 ft 12 kts 238°
2026-05-07 11:16 31.73516 118.87476 57 ft 7 kts 192°
2026-05-07 11:16 31.73472 118.87496 57 ft 3 kts 147°
2026-05-07 11:17 31.73458 118.87507 57 ft 0 kts 147°